Location: Asheville, NC
(35.6000°N, 82.5500°W)
Time: 23:51:33
(UTC-05:00)

Vanguard 1 Rocket - Pass Details

Date: 07 December 2017
Orbit: 656 x 4222 km, 34.3° (Epoch: 18 January)

Event Time Altitude Azimuth Distance (km) Brightness Sun altitude
Rises 17:13:14 0° 217° (SW) 4,389 12.3 -0.2°
Reaches altitude 10° 17:15:46 10° 210° (SSW) 3,742 11.6 -0.6°
Maximum altitude 17:25:30 46° 140° (SE) 2,962 9.9 -2.4°
Drops below altitude 10° 17:43:25 10° 76° (ENE) 6,675 11.1 -5.7°
Enters shadow 17:46:01 - 74° (ENE) 7,262 11.3 -6.2°
Sets 17:49:50 0° 72° (ENE) 8,092 - -6.9°
